STARLINK-32347, 61010

Orbit data source: Space-Track

STARLINK-32347, 61010 is a payload satellite owned by SpaceX/Seattle (US) in LEO that was launched on Thu, 05 Sep 2024 UTC via an FALCON 9 launch vehicle from the Air Force Eastern Test Range (AFETR). Payload-class satellites include a variety of spacecraft equipped with specific instruments for various scientific and technological missions. These include communications satellites like Starlink; space stations such as the ISS; scientific satellites like the Hubble; Earth observation satellites from companies like Planet Labs, Umbra, and HawkEye 360; GPS; miniature CubeSats for education and research; and military/defense satellites.

Loading next visibility...
Identifier
61010, 2024-158W
Orbit
LEO
Last TLE update
15 hours ago
Origin
Manufacturer
SpaceX/Seattle
Mission
Operational Commercial Communications
Bus & Motor
STARLINK V2M, Unknown motor
Mass
730 kg wet, ~700 kg dry
Launch date (UTC)
2024-09-05 (10 months ago)
Launch vehicle
FALCON 9
Launch site
Air Force Eastern Test Range (AFETR)
Object type
Payload
Rocket body
Debris
Shape & HBR
Box + 2 Pan, 14.5 m
Radar Cross Section
33.884 m², Large (>1 m²)

Expand to show TLE details & history

TLE from 15 hours ago
0 STARLINK-32347
1 61010U 24158W   25199.34978502 -.00000077  00000-0  95445-5 0  9999
2 61010  53.1609  73.9492 0001225  71.7028 288.4106 15.30190012 49704
Epoch: 2025-07-18T08:23Z
TLE epoch observation values (Epoch: 2025-07-18T08:23:41.425Z)
Latitude
-0.00003°
Longitude
11.62406°
Altitude
475.88 km
Speed
7.629 km/s
True Right ascension
04h 55m 47s
True Declination
0° 00' 00"
Sunlit
Object was in daylight at epoch
Visualization orbit readout
Latitude
-15.34425°
Longitude
-159.47847°
Altitude
479.863 km
Speed
7.626 km/s
Apparent Right ascension
20h 10m 33s
Apparent Declination
-37° 53' 52"
Sunlit
Object is in full shadow
Visualization observer readout
Local Sidereal Time
12:09:45
Azimuth
107.605° ESE
Elevation
-44.316°
Doppler factor
1
Orbital elements
Apogee altitude
476.341 km
Perigee altitude
474.662 km
Semi-major axis
6,853.638 km
Eccentricity
0.00012
Inclination
53.1609°
RAAN
73.9492°
Arg. of periapsis
71.7028°
True anomaly
288.39728°
Mean anomaly
288.4106°
Eccentric anomaly
288.40394°
Mean motion
3.82526 °/min
Orbital period
94.11 mins
BSTAR
0.0000095445
Loading maneuver chart data...
Loading SW <> Apogee altitude chart data...
Loading historical data...
Loading historical data...
Loading historical data...
Loading historical data...
Loading historical data...
Loading historical data...
Loading historical data...
|